Weather History for Edinburg, TX

Change the Weather History Date:

Tuesday, May 21, 2013

  Actual Average (KMFE) Record (KMFE)
Temperature  
Mean Temperature 86 °F 83 °F  
Max Temperature 95 °F 93 °F 100 °F (1957)
Min Temperature 78 °F 73 °F 63 °F (1972)
Degree Days  
Heating Degree Days 0 0  
Month to date heating degree days 0  
Since 1 July heating degree days 579  
Cooling Degree Days 22 18  
Month to date cooling degree days 336  
Year to date cooling degree days 1067  
Growing Degree Days 36 (Base 50)    
Moisture  
Dew Point 71 °F    
Average Humidity 63    
Maximum Humidity 83    
Minimum Humidity 41    
Precipitation  
Precipitation 0.00 in 0.07 in 1.09 in (1982)
Month to date precipitation 1.51  
Year to date precipitation 6.04  
Sea Level Pressure  
Sea Level Pressure 29.72 in    
Wind  
Wind Speed 13 mph (SE)    
Max Wind Speed 24 mph    
Max Gust Speed 30 mph    
Visibility 5 miles    
Events      
T = Trace of Precipitation, MM = Missing Value Source: NWS Daily Summary

Daily Weather History Graph

Daily Weather History Graph

Search for Another Location

Airport:

Trip Planner

Search our weather history database for the weather conditions in past years. The results will help you decide how hot, cold, wet, or windy it might be!

Date:

Astronomy

May. 21, 2013 Rise Set
Actual Time 6:42 AM CDT 8:15 PM CDT
Civil Twilight 6:17 AM CDT 8:41 PM CDT
Nautical Twilight 5:46 AM CDT 9:11 PM CDT
Astronomical Twilight 5:15 AM CDT 9:43 PM CDT
Moon 4:49 PM CDT 3:50 AM CDT
Length of Visible Light 14h 23m
Length of Day
13h 33m
Waxing Gibbous, 84% of the Moon is Illuminated
May 21
Waxing Gibbous
May 24
Full
May 31
Last Quarter
Jun 8
New
Jun 16
First Quarter

Hourly Weather History & Observations

Time (CDT) Temp. Heat Index Dew Point Humidity Pressure Visibility Wind Dir Wind Speed Gust Speed Precip Events Conditions
12:15 AM 79.0 °F - 73.4 °F 83% 29.74 in 5.0 mi ESE 10.4 mph 16.1 mph N/A   Haze
12:35 AM 78.8 °F - 73.4 °F 83% 29.74 in 5.0 mi SE 13.8 mph - N/A   Haze
12:55 AM 78.8 °F - 73.4 °F 83% 29.75 in 5.0 mi SSE 9.2 mph - N/A   Haze
1:15 AM 79.3 °F - 73.4 °F 82% 29.75 in 5.0 mi SSE 10.4 mph 18.4 mph N/A   Haze
1:35 AM 79.9 °F - 73.4 °F 80% 29.75 in 5.0 mi SSE 9.2 mph - N/A   Haze
1:55 AM 80.1 °F 84.4 °F 73.4 °F 80% 29.75 in 5.0 mi SSE 11.5 mph - N/A   Haze
2:15 AM 80.2 °F 84.7 °F 73.4 °F 80% 29.74 in 5.0 mi SE 11.5 mph 16.1 mph N/A   Haze
2:35 AM 80.4 °F 85.0 °F 73.4 °F 79% 29.73 in 5.0 mi SSE 11.5 mph - N/A   Haze
2:55 AM 80.2 °F 84.7 °F 73.4 °F 80% 29.71 in 5.0 mi SE 13.8 mph - N/A   Haze
3:15 AM 80.6 °F 85.4 °F 73.4 °F 79% 29.71 in 5.0 mi SE 12.7 mph - N/A   Haze
3:35 AM 80.6 °F 85.4 °F 73.4 °F 79% 29.71 in 4.0 mi SE 11.5 mph - N/A   Haze
3:55 AM 80.6 °F 85.4 °F 73.4 °F 79% 29.72 in 5.0 mi SE 12.7 mph 17.3 mph N/A   Haze
4:15 AM 80.6 °F 85.4 °F 73.4 °F 79% 29.72 in 5.0 mi SE 11.5 mph - N/A   Haze
4:35 AM 80.6 °F 85.4 °F 73.4 °F 79% 29.72 in 5.0 mi SE 15.0 mph - N/A   Haze
4:55 AM 80.6 °F 85.0 °F 72.9 °F 77% 29.73 in 5.0 mi SSE 10.4 mph - N/A   Haze
5:15 AM 81.1 °F 85.6 °F 72.0 °F 74% 29.73 in 5.0 mi SSE 11.5 mph 17.3 mph N/A   Haze
5:35 AM 81.1 °F 85.4 °F 71.6 °F 73% 29.73 in 5.0 mi SSE 11.5 mph 17.3 mph N/A   Haze
5:55 AM 80.6 °F 84.7 °F 72.1 °F 75% 29.73 in 5.0 mi SE 11.5 mph - N/A   Haze
6:15 AM 80.6 °F 84.7 °F 72.1 °F 75% 29.74 in 5.0 mi SE 11.5 mph - N/A   Haze
6:35 AM 81.0 °F 84.9 °F 71.2 °F 72% 29.74 in 5.0 mi SSE 11.5 mph - N/A   Haze
6:55 AM 80.8 °F 84.7 °F 71.6 °F 73% 29.74 in 4.0 mi SE 11.5 mph 18.4 mph N/A   Haze
7:15 AM 80.6 °F 84.6 °F 71.8 °F 74% 29.75 in 4.0 mi SE 11.5 mph 17.3 mph N/A   Haze
7:35 AM 80.8 °F 84.7 °F 71.6 °F 73% 29.75 in 4.0 mi SSE 12.7 mph - N/A   Haze
7:55 AM 81.5 °F 85.9 °F 71.8 °F 72% 29.75 in 4.0 mi SE 15.0 mph 23.0 mph N/A   Haze
8:15 AM 81.9 °F 86.4 °F 71.6 °F 71% 29.75 in 4.0 mi SE 17.3 mph - N/A   Haze
8:35 AM 82.4 °F 87.4 °F 72.1 °F 71% 29.76 in 4.0 mi SSE 18.4 mph 24.2 mph N/A   Haze
8:55 AM 82.4 °F 87.7 °F 72.5 °F 72% 29.77 in 4.0 mi SSE 17.3 mph 23.0 mph N/A   Haze
9:15 AM 82.8 °F 88.4 °F 72.9 °F 72% 29.77 in 4.0 mi SSE 17.3 mph 25.3 mph N/A   Haze
9:35 AM 83.3 °F 89.3 °F 72.9 °F 71% 29.77 in 4.0 mi SE 16.1 mph 25.3 mph N/A   Haze
9:55 AM 84.6 °F 91.0 °F 73.0 °F 68% 29.76 in 3.0 mi SE 20.7 mph 26.5 mph N/A   Haze
10:15 AM 86.2 °F 93.0 °F 72.5 °F 64% 29.76 in 3.0 mi SSE 24.2 mph 29.9 mph N/A   Haze
10:35 AM 86.5 °F 92.5 °F 71.4 °F 61% 29.76 in 3.0 mi SSE 17.3 mph 28.8 mph N/A   Haze
10:55 AM 87.1 °F 93.6 °F 72.0 °F 61% 29.76 in 4.0 mi SSE 20.7 mph 26.5 mph N/A   Haze
11:15 AM 87.6 °F 93.9 °F 71.8 °F 59% 29.76 in 4.0 mi SE 20.7 mph 25.3 mph N/A   Haze
11:35 AM 88.3 °F 94.5 °F 71.6 °F 57% 29.76 in 4.0 mi SSE 23.0 mph 27.6 mph N/A   Haze
11:55 AM 90.1 °F 96.8 °F 71.4 °F 54% 29.75 in 5.0 mi SSE 20.7 mph 27.6 mph N/A   Haze
12:15 PM 91.2 °F 97.5 °F 70.9 °F 51% 29.75 in 4.0 mi SSE 17.3 mph 26.5 mph N/A   Haze
12:35 PM 91.6 °F 98.2 °F 70.9 °F 51% 29.75 in 4.0 mi SSE 18.4 mph 25.3 mph N/A   Haze
12:55 PM 92.1 °F 98.3 °F 70.5 °F 49% 29.73 in 5.0 mi SE 18.4 mph 23.0 mph N/A   Haze
1:15 PM 93.2 °F 99.4 °F 70.0 °F 47% 29.73 in 5.0 mi SSE 17.3 mph 26.5 mph N/A   Haze
1:35 PM 93.6 °F 99.5 °F 69.8 °F 46% 29.72 in 5.0 mi SSE 16.1 mph 27.6 mph N/A   Haze
1:55 PM 94.1 °F 100.0 °F 70.0 °F 45% 29.72 in 5.0 mi South 17.3 mph 29.9 mph N/A   Haze
2:15 PM 94.5 °F 100.8 °F 69.8 °F 45% 29.71 in 5.0 mi SSE 19.6 mph 24.2 mph N/A   Haze
2:35 PM 95.5 °F 101.8 °F 70.0 °F 43% 29.71 in 7.0 mi South 16.1 mph 25.3 mph N/A   Scattered Clouds
2:55 PM 95.4 °F 101.4 °F 69.4 °F 43% 29.70 in 7.0 mi SSE 17.3 mph 24.2 mph N/A   Clear
3:15 PM 95.4 °F 100.8 °F 69.3 °F 42% 29.69 in 5.0 mi SSE 16.1 mph 24.2 mph N/A   Haze
3:35 PM 95.0 °F 100.7 °F 69.3 °F 43% 29.69 in 7.0 mi SE 13.8 mph 20.7 mph N/A   Clear
3:55 PM 94.6 °F 100.5 °F 69.4 °F 44% 29.69 in 5.0 mi SE 13.8 mph 20.7 mph N/A   Haze
4:15 PM 95.4 °F 100.8 °F 69.1 °F 42% 29.68 in 7.0 mi SE 16.1 mph 23.0 mph N/A   Clear
4:35 PM 95.0 °F 100.7 °F 69.1 °F 43% 29.67 in 5.0 mi SE 10.4 mph 21.9 mph N/A   Haze
4:55 PM 95.2 °F 100.5 °F 68.7 °F 42% 29.67 in 5.0 mi SSE 15.0 mph 19.6 mph N/A   Haze
5:15 PM 95.2 °F 99.9 °F 68.0 °F 41% 29.67 in 5.0 mi South 13.8 mph 21.9 mph N/A   Haze
5:35 PM 94.8 °F 100.3 °F 69.1 °F 43% 29.67 in 5.0 mi SSE 12.7 mph - N/A   Haze
5:55 PM 93.6 °F 99.0 °F 69.1 °F 45% 29.67 in 4.0 mi SSE 11.5 mph 19.6 mph N/A   Haze
6:15 PM 91.9 °F 97.4 °F 69.8 °F 48% 29.67 in 5.0 mi SSE 12.7 mph 19.6 mph N/A   Haze
6:35 PM 91.4 °F 97.3 °F 70.3 °F 50% 29.67 in 5.0 mi SE 11.5 mph 16.1 mph N/A   Haze
6:55 PM 90.5 °F 96.0 °F 70.0 °F 51% 29.68 in 5.0 mi SE 12.7 mph - N/A   Haze
7:15 PM 90.0 °F 95.4 °F 70.3 °F 52% 29.68 in 5.0 mi SE 12.7 mph - N/A   Haze
7:35 PM 89.1 °F 94.1 °F 69.8 °F 53% 29.69 in 5.0 mi SE 10.4 mph - N/A   Haze
7:55 PM 88.2 °F 93.3 °F 70.2 °F 55% 29.69 in 5.0 mi SE 10.4 mph - N/A   Haze
8:15 PM 87.1 °F 92.8 °F 71.2 °F 59% 29.70 in 5.0 mi SE 6.9 mph - N/A   Haze
8:35 PM 86.5 °F 91.8 °F 70.7 °F 59% 29.71 in 7.0 mi SE 9.2 mph - N/A   Clear
8:55 PM 86.0 °F 91.1 °F 70.7 °F 60% 29.71 in 7.0 mi SE 9.2 mph - N/A   Clear
9:15 PM 85.8 °F 90.8 °F 70.7 °F 60% 29.71 in 5.0 mi SE 8.1 mph - N/A   Haze
9:35 PM 85.3 °F 90.4 °F 70.7 °F 62% 29.72 in 7.0 mi SE 6.9 mph - N/A   Clear
9:55 PM 84.7 °F 89.7 °F 71.1 °F 63% 29.72 in 7.0 mi SE 9.2 mph - N/A   Clear
10:15 PM 84.4 °F 89.7 °F 71.6 °F 65% 29.73 in 7.0 mi SE 10.4 mph - N/A   Clear
10:35 PM 83.8 °F 89.2 °F 71.8 °F 67% 29.73 in 7.0 mi SE 10.4 mph - N/A   Clear
10:55 PM 83.3 °F 88.7 °F 72.1 °F 69% 29.74 in 7.0 mi SSE 8.1 mph - N/A   Clear
11:15 PM 82.8 °F 88.4 °F 72.9 °F 72% 29.74 in 7.0 mi SE 10.4 mph - N/A   Clear
11:35 PM 82.0 °F 87.7 °F 73.4 °F 75% 29.74 in 7.0 mi SSE 8.1 mph - N/A   Clear
11:55 PM 81.3 °F 86.5 °F 73.6 °F 77% 29.74 in 5.0 mi SE 8.1 mph - N/A   Haze